Year,Month,Day,Hour,Minute,Value (Times are PST for temperature in C)
2015,06,26,00,00,16.80
2015,06,26,00,01,16.80
2015,06,26,00,02,16.70
2015,06,26,00,03,16.70
2015,06,26,00,04,16.70
2015,06,26,00,05,16.60
2015,06,26,00,06,16.60
2015,06,26,00,07,16.60
2015,06,26,00,08,16.50
2015,06,26,00,09,16.50
2015,06,26,00,10,16.50
2015,06,26,00,11,16.40
2015,06,26,00,12,16.40
2015,06,26,00,13,16.40
2015,06,26,00,14,16.30
2015,06,26,00,15,16.30
2015,06,26,00,16,16.30
2015,06,26,00,17,16.30
2015,06,26,00,18,16.30
2015,06,26,00,19,16.30
2015,06,26,00,20,16.20
2015,06,26,00,21,16.20
2015,06,26,00,22,16.20
2015,06,26,00,23,16.20
2015,06,26,00,24,16.20
2015,06,26,00,25,16.20
2015,06,26,00,26,16.20
2015,06,26,00,27,16.20
2015,06,26,00,28,16.10
2015,06,26,00,29,16.10
2015,06,26,00,30,16.10
2015,06,26,00,31,16.10
2015,06,26,00,32,16.10
2015,06,26,00,33,16.10
2015,06,26,00,34,16.00
2015,06,26,00,35,16.00
2015,06,26,00,36,16.00
2015,06,26,00,37,16.00
2015,06,26,00,38,16.00
2015,06,26,00,39,16.00
2015,06,26,00,40,16.00
2015,06,26,00,41,15.90
2015,06,26,00,42,15.90
2015,06,26,00,43,15.90
2015,06,26,00,44,15.90
2015,06,26,00,45,15.90
2015,06,26,00,46,15.90
2015,06,26,00,47,15.90
2015,06,26,00,48,15.80
2015,06,26,00,49,15.80
2015,06,26,00,50,15.80
2015,06,26,00,51,15.80
2015,06,26,00,52,15.80
2015,06,26,00,53,15.80
2015,06,26,00,54,15.80
2015,06,26,00,55,15.80
2015,06,26,00,56,15.80
2015,06,26,00,57,15.80
2015,06,26,00,58,15.80
2015,06,26,00,59,15.80
2015,06,26,01,00,15.80
2015,06,26,01,01,15.80
2015,06,26,01,02,15.70
2015,06,26,01,03,15.70
2015,06,26,01,04,15.70
2015,06,26,01,05,15.70
2015,06,26,01,06,15.70
2015,06,26,01,07,15.70
2015,06,26,01,08,15.70
2015,06,26,01,09,15.70
2015,06,26,01,10,15.70
2015,06,26,01,11,15.70
2015,06,26,01,12,15.70
2015,06,26,01,13,15.60
2015,06,26,01,14,15.60
2015,06,26,01,15,15.60
2015,06,26,01,16,15.60
2015,06,26,01,17,15.60
2015,06,26,01,18,15.60
2015,06,26,01,19,15.60
2015,06,26,01,20,15.60
2015,06,26,01,21,15.60
2015,06,26,01,22,15.60
2015,06,26,01,23,15.60
2015,06,26,01,24,15.60
2015,06,26,01,25,15.60
2015,06,26,01,26,15.50
2015,06,26,01,27,15.50
2015,06,26,01,28,15.50
2015,06,26,01,29,15.50
2015,06,26,01,30,15.50
2015,06,26,01,31,15.50
2015,06,26,01,32,15.50
2015,06,26,01,33,15.40
2015,06,26,01,34,15.40
2015,06,26,01,35,15.40
2015,06,26,01,36,15.40
2015,06,26,01,37,15.40
2015,06,26,01,38,15.40
2015,06,26,01,39,15.40
2015,06,26,01,40,15.40
2015,06,26,01,41,15.40
2015,06,26,01,42,15.40
2015,06,26,01,43,15.40
2015,06,26,01,44,15.40
2015,06,26,01,49,15.40
2015,06,26,01,50,15.40
2015,06,26,01,51,15.40
2015,06,26,01,52,15.40
2015,06,26,01,53,15.40
2015,06,26,01,54,15.40
2015,06,26,01,55,15.40
2015,06,26,01,56,15.40
2015,06,26,01,57,15.40
2015,06,26,01,58,15.40
2015,06,26,01,59,15.40
2015,06,26,02,00,15.40
2015,06,26,02,01,15.40
2015,06,26,02,02,15.40
2015,06,26,02,03,15.40
2015,06,26,02,04,15.40
2015,06,26,02,05,15.40
2015,06,26,02,06,15.40
2015,06,26,02,07,15.40
2015,06,26,02,08,15.40
2015,06,26,02,09,15.40
2015,06,26,02,10,15.40
2015,06,26,02,11,15.30
2015,06,26,02,12,15.30
2015,06,26,02,13,15.30
2015,06,26,02,14,15.30
2015,06,26,02,15,15.30
2015,06,26,02,16,15.30
2015,06,26,02,17,15.30
2015,06,26,02,18,15.30
2015,06,26,02,19,15.30
2015,06,26,02,20,15.30
2015,06,26,02,21,15.30
2015,06,26,02,22,15.30
2015,06,26,02,23,15.30
2015,06,26,02,24,15.30
2015,06,26,02,25,15.30
2015,06,26,02,26,15.30
2015,06,26,02,27,15.30
2015,06,26,02,28,15.30
2015,06,26,02,29,15.30
2015,06,26,02,30,15.30
2015,06,26,02,31,15.30
2015,06,26,02,32,15.30
2015,06,26,02,33,15.30
2015,06,26,02,34,15.30
2015,06,26,02,35,15.30
2015,06,26,02,36,15.30
2015,06,26,02,37,15.30
2015,06,26,02,38,15.30
2015,06,26,02,39,15.40
2015,06,26,02,40,15.40
2015,06,26,02,41,15.40
2015,06,26,02,42,15.40
2015,06,26,02,43,15.40
2015,06,26,02,44,15.40
2015,06,26,02,45,15.40
2015,06,26,02,46,15.40
2015,06,26,02,47,15.40
2015,06,26,02,48,15.40
2015,06,26,02,49,15.40
2015,06,26,02,50,15.40
2015,06,26,02,51,15.40
2015,06,26,02,52,15.50
2015,06,26,02,53,15.50
2015,06,26,02,54,15.50
2015,06,26,02,55,15.50
2015,06,26,02,56,15.60
2015,06,26,02,57,15.70
2015,06,26,02,58,15.80
2015,06,26,02,59,15.80
2015,06,26,03,00,15.80
2015,06,26,03,01,15.80
2015,06,26,03,02,15.70
2015,06,26,03,03,15.70
2015,06,26,03,04,15.70
2015,06,26,03,05,15.70
2015,06,26,03,06,15.80
2015,06,26,03,07,15.90
2015,06,26,03,08,16.00
2015,06,26,03,09,16.10
2015,06,26,03,10,16.20
2015,06,26,03,11,16.30
2015,06,26,03,12,16.30
2015,06,26,03,13,16.30
2015,06,26,03,14,16.20
2015,06,26,03,15,16.20
2015,06,26,03,16,16.20
2015,06,26,03,17,16.10
2015,06,26,03,18,16.10
2015,06,26,03,19,16.10
2015,06,26,03,20,16.00
2015,06,26,03,21,16.00
2015,06,26,03,22,16.00
2015,06,26,03,23,16.00
2015,06,26,03,24,16.10
2015,06,26,03,25,16.10
2015,06,26,03,26,16.10
2015,06,26,03,27,16.00
2015,06,26,03,28,16.00
2015,06,26,03,29,16.00
2015,06,26,03,30,16.00
2015,06,26,03,31,16.00
2015,06,26,03,32,16.10
2015,06,26,03,33,16.10
2015,06,26,03,34,16.10
2015,06,26,03,35,16.20
2015,06,26,03,36,16.20
2015,06,26,03,37,16.20
2015,06,26,03,38,16.20
2015,06,26,03,39,16.20
2015,06,26,03,40,16.20
2015,06,26,03,41,16.20
2015,06,26,03,42,16.20
2015,06,26,03,43,16.20
2015,06,26,03,44,16.20
2015,06,26,03,45,16.20
2015,06,26,03,46,16.20
2015,06,26,03,47,16.20
2015,06,26,03,48,16.20
2015,06,26,03,49,16.20
2015,06,26,03,50,16.20
2015,06,26,03,51,16.20
2015,06,26,03,52,16.10
2015,06,26,03,53,16.10
2015,06,26,03,54,16.10
2015,06,26,03,55,16.10
2015,06,26,03,56,16.10
2015,06,26,03,57,16.10
2015,06,26,03,58,16.10
2015,06,26,03,59,16.10
2015,06,26,04,00,16.20
2015,06,26,04,01,16.20
2015,06,26,04,02,16.20
2015,06,26,04,03,16.20
2015,06,26,04,04,16.20
2015,06,26,04,05,16.20
2015,06,26,04,06,16.20
2015,06,26,04,07,16.20
2015,06,26,04,08,16.20
2015,06,26,04,09,16.20
2015,06,26,04,10,16.20
2015,06,26,04,11,16.30
2015,06,26,04,12,16.30
2015,06,26,04,13,16.30
2015,06,26,04,14,16.30
2015,06,26,04,15,16.30
2015,06,26,04,16,16.30
2015,06,26,04,17,16.30
2015,06,26,04,18,16.30
2015,06,26,04,19,16.30
2015,06,26,04,20,16.30
2015,06,26,04,21,16.30
2015,06,26,04,22,16.30
2015,06,26,04,23,16.20
2015,06,26,04,24,16.20
2015,06,26,04,25,16.20
2015,06,26,04,26,16.20
2015,06,26,04,27,16.20
2015,06,26,04,28,16.20
2015,06,26,04,29,16.20
2015,06,26,04,30,16.20
2015,06,26,04,31,16.20
2015,06,26,04,32,16.20
2015,06,26,04,33,16.20
2015,06,26,04,34,16.20
2015,06,26,04,35,16.10
2015,06,26,04,36,16.10
2015,06,26,04,37,16.10
2015,06,26,04,38,16.10
2015,06,26,04,39,16.10
2015,06,26,04,40,16.00
2015,06,26,04,41,16.00
2015,06,26,04,42,16.00
2015,06,26,04,43,16.00
2015,06,26,04,44,16.00
2015,06,26,04,45,16.00
2015,06,26,04,46,16.00
2015,06,26,04,47,16.00
2015,06,26,04,48,15.90
2015,06,26,04,49,15.90
2015,06,26,04,50,15.90
2015,06,26,04,51,15.90
2015,06,26,04,52,15.90
2015,06,26,04,53,15.90
2015,06,26,04,54,15.90
2015,06,26,04,55,15.90
2015,06,26,04,56,15.90
2015,06,26,04,57,15.90
2015,06,26,04,58,15.90
2015,06,26,04,59,15.80
2015,06,26,05,00,15.80
2015,06,26,05,01,15.80
2015,06,26,05,02,15.80
2015,06,26,05,03,15.80
2015,06,26,05,04,15.80
2015,06,26,05,05,15.80
2015,06,26,05,06,15.80
2015,06,26,05,07,15.80
2015,06,26,05,08,15.80
2015,06,26,05,09,15.80
2015,06,26,05,10,15.80
2015,06,26,05,11,15.70
2015,06,26,05,12,15.70
2015,06,26,05,13,15.70
2015,06,26,05,14,15.70
2015,06,26,05,15,15.80
2015,06,26,05,16,15.70
2015,06,26,05,17,15.70
2015,06,26,05,18,15.70
2015,06,26,05,19,15.70
2015,06,26,05,20,15.70
2015,06,26,05,21,15.70
2015,06,26,05,22,15.70
2015,06,26,05,23,15.70
2015,06,26,05,24,15.70
2015,06,26,05,25,15.70
2015,06,26,05,26,15.70
2015,06,26,05,27,15.70
2015,06,26,05,28,15.70
2015,06,26,05,29,15.70
2015,06,26,05,30,15.70
2015,06,26,05,31,15.70
2015,06,26,05,32,15.70
2015,06,26,05,33,15.70
2015,06,26,05,34,15.70
2015,06,26,05,35,15.70
2015,06,26,05,36,15.70
2015,06,26,05,37,15.70
2015,06,26,05,38,15.70
2015,06,26,05,39,15.70
2015,06,26,05,40,15.70
2015,06,26,05,41,15.70
2015,06,26,05,42,15.70
2015,06,26,05,43,15.70
2015,06,26,05,44,15.70
2015,06,26,05,45,15.70
2015,06,26,05,46,15.70
2015,06,26,05,47,15.70
2015,06,26,05,48,15.70
2015,06,26,05,49,15.70
2015,06,26,05,50,15.80
2015,06,26,05,51,15.80
2015,06,26,05,52,15.80
2015,06,26,05,53,15.80
2015,06,26,05,54,15.70
2015,06,26,05,55,15.70
2015,06,26,05,56,15.70
2015,06,26,05,57,15.70
2015,06,26,05,58,15.70
2015,06,26,05,59,15.70
2015,06,26,06,00,15.70
2015,06,26,06,01,15.70
2015,06,26,06,02,15.80
2015,06,26,06,03,15.80
2015,06,26,06,04,15.80
2015,06,26,06,05,15.80
2015,06,26,06,06,15.80
2015,06,26,06,07,15.80
2015,06,26,06,08,15.80
2015,06,26,06,09,15.80
2015,06,26,06,10,15.80
2015,06,26,06,11,15.80
2015,06,26,06,12,15.80
2015,06,26,06,13,15.80
2015,06,26,06,14,15.80
2015,06,26,06,15,15.80
2015,06,26,06,16,15.80
2015,06,26,06,17,15.80
2015,06,26,06,18,15.80
2015,06,26,06,19,15.80
2015,06,26,06,20,15.90
2015,06,26,06,21,15.90
2015,06,26,06,22,15.90
2015,06,26,06,23,15.90
2015,06,26,06,24,15.90
2015,06,26,06,25,15.90
2015,06,26,06,26,16.00
2015,06,26,06,27,16.00
2015,06,26,06,28,16.00
2015,06,26,06,29,16.00
2015,06,26,06,30,16.00
2015,06,26,06,31,16.00
2015,06,26,06,32,16.00
2015,06,26,06,33,16.10
2015,06,26,06,34,16.10
2015,06,26,06,35,16.10
2015,06,26,06,36,16.10
2015,06,26,06,37,16.10
2015,06,26,06,38,16.10
2015,06,26,06,39,16.10
2015,06,26,06,40,16.10
2015,06,26,06,41,16.10
2015,06,26,06,42,16.10
2015,06,26,06,43,16.10
2015,06,26,06,44,16.10
2015,06,26,06,45,16.20
2015,06,26,06,46,16.20
2015,06,26,06,47,16.20
2015,06,26,06,48,16.20
2015,06,26,06,49,16.20
2015,06,26,06,50,16.20
2015,06,26,06,51,16.20
2015,06,26,06,52,16.30
2015,06,26,06,53,16.30
2015,06,26,06,54,16.30
2015,06,26,06,55,16.30
2015,06,26,06,56,16.30
2015,06,26,06,57,16.30
2015,06,26,06,58,16.30
2015,06,26,06,59,16.30
2015,06,26,07,00,16.40
2015,06,26,07,01,16.40
2015,06,26,07,02,16.40
2015,06,26,07,03,16.40
2015,06,26,07,04,16.40
2015,06,26,07,05,16.40
2015,06,26,07,06,16.40
2015,06,26,07,07,16.40
2015,06,26,07,08,16.40
2015,06,26,07,09,16.40
2015,06,26,07,10,16.40
2015,06,26,07,11,16.40
2015,06,26,07,12,16.40
2015,06,26,07,13,16.40
2015,06,26,07,14,16.40
2015,06,26,07,15,16.40
2015,06,26,07,16,16.40
2015,06,26,07,17,16.50
2015,06,26,07,18,16.50
2015,06,26,07,19,16.50
2015,06,26,07,20,16.50
2015,06,26,07,21,16.60
2015,06,26,07,22,16.60
2015,06,26,07,23,16.60
2015,06,26,07,24,16.60
2015,06,26,07,25,16.60
2015,06,26,07,26,16.60
2015,06,26,07,27,16.60
2015,06,26,07,28,16.60
2015,06,26,07,29,16.60
2015,06,26,07,30,16.60
2015,06,26,07,31,16.60
2015,06,26,07,32,16.70
2015,06,26,07,33,16.70
2015,06,26,07,34,16.70
2015,06,26,07,35,16.70
2015,06,26,07,36,16.70
2015,06,26,07,37,16.70
2015,06,26,07,38,16.70
2015,06,26,07,39,16.70
2015,06,26,07,40,16.70
2015,06,26,07,41,16.80
2015,06,26,07,42,16.80
2015,06,26,07,43,16.80
2015,06,26,07,44,16.80
2015,06,26,07,45,16.80
2015,06,26,07,46,16.80
2015,06,26,07,47,16.90
2015,06,26,07,48,16.90
2015,06,26,07,49,16.90
2015,06,26,07,50,16.90
2015,06,26,07,51,16.90
2015,06,26,07,52,16.90
2015,06,26,07,53,17.00
2015,06,26,07,54,17.00
2015,06,26,07,55,17.00
2015,06,26,07,56,17.00
2015,06,26,07,57,17.00
2015,06,26,07,58,17.00
2015,06,26,07,59,17.00
2015,06,26,08,00,17.00
2015,06,26,08,01,17.00
2015,06,26,08,02,17.00
2015,06,26,08,03,17.10
2015,06,26,08,04,17.00
2015,06,26,08,05,17.00
2015,06,26,08,06,17.10
2015,06,26,08,07,17.10
2015,06,26,08,08,17.10
2015,06,26,08,09,17.20
2015,06,26,08,10,17.20
2015,06,26,08,11,17.20
2015,06,26,08,12,17.20
2015,06,26,08,13,17.20
2015,06,26,08,14,17.20
2015,06,26,08,15,17.30
2015,06,26,08,16,17.30
2015,06,26,08,17,17.30
2015,06,26,08,18,17.30
2015,06,26,08,19,17.30
2015,06,26,08,20,17.30
2015,06,26,08,21,17.40
2015,06,26,08,22,17.40
2015,06,26,08,23,17.40
2015,06,26,08,24,17.40
2015,06,26,08,25,17.40
2015,06,26,08,26,17.40
2015,06,26,08,27,17.50
2015,06,26,08,28,17.50
2015,06,26,08,29,17.50
2015,06,26,08,30,17.50
2015,06,26,08,31,17.40
2015,06,26,08,32,17.40
2015,06,26,08,33,17.40
2015,06,26,08,34,17.40
2015,06,26,08,35,17.40
2015,06,26,08,36,17.50
2015,06,26,08,37,17.50
2015,06,26,08,38,17.50
2015,06,26,08,39,17.50
2015,06,26,08,40,17.60
2015,06,26,08,41,17.60
2015,06,26,08,42,17.60
2015,06,26,08,43,17.50
2015,06,26,08,44,17.60
2015,06,26,08,45,17.60
2015,06,26,08,46,17.60
2015,06,26,08,47,17.60
2015,06,26,08,48,17.60
2015,06,26,08,49,17.60
2015,06,26,08,50,17.60
2015,06,26,08,51,17.60
2015,06,26,08,52,17.60
2015,06,26,08,53,17.60
2015,06,26,08,54,17.60
2015,06,26,08,55,17.60
2015,06,26,08,56,17.60
2015,06,26,08,57,17.70
2015,06,26,08,58,17.70
2015,06,26,08,59,17.80
2015,06,26,09,00,17.80
2015,06,26,09,01,17.80
2015,06,26,09,02,17.90
2015,06,26,09,03,17.90
2015,06,26,09,04,18.00
2015,06,26,09,05,18.00
2015,06,26,09,06,18.10
2015,06,26,09,07,18.10
2015,06,26,09,08,18.20
2015,06,26,09,09,18.30
2015,06,26,09,10,18.30
2015,06,26,09,11,18.40
2015,06,26,09,12,18.50
2015,06,26,09,13,18.50
2015,06,26,09,14,18.60
2015,06,26,09,15,18.60
2015,06,26,09,16,18.70
2015,06,26,09,17,18.80
2015,06,26,09,18,18.90
2015,06,26,09,19,19.10
2015,06,26,09,20,19.20
2015,06,26,09,21,19.20
2015,06,26,09,22,19.30
2015,06,26,09,23,19.40
2015,06,26,09,24,19.50
2015,06,26,09,25,19.50
2015,06,26,09,26,19.50
2015,06,26,09,27,19.60
2015,06,26,09,28,19.60
2015,06,26,09,29,19.60
2015,06,26,09,30,19.70
2015,06,26,09,31,19.70
2015,06,26,09,32,19.70
2015,06,26,09,33,19.70
2015,06,26,09,34,19.70
2015,06,26,09,35,19.70
2015,06,26,09,36,19.70
2015,06,26,09,37,19.80
2015,06,26,09,38,19.80
2015,06,26,09,39,19.90
2015,06,26,09,40,19.90
2015,06,26,09,41,20.00
2015,06,26,09,42,20.00
2015,06,26,09,43,20.10
2015,06,26,09,44,20.20
2015,06,26,09,45,20.20
2015,06,26,09,46,20.30
2015,06,26,09,47,20.40
2015,06,26,09,48,20.40
2015,06,26,09,49,20.50
2015,06,26,09,50,20.60
2015,06,26,09,51,20.60
2015,06,26,09,52,20.70
2015,06,26,09,53,20.80
2015,06,26,09,54,20.80
2015,06,26,09,55,20.90
2015,06,26,09,56,21.00
2015,06,26,09,57,21.10
2015,06,26,09,58,21.20
2015,06,26,09,59,21.30
2015,06,26,10,00,21.40
2015,06,26,10,01,21.40
2015,06,26,10,02,21.40
2015,06,26,10,03,21.40
2015,06,26,10,04,21.40
2015,06,26,10,05,21.50
2015,06,26,10,06,21.50
2015,06,26,10,07,21.50
2015,06,26,10,08,21.60
2015,06,26,10,09,21.60
2015,06,26,10,10,21.60
2015,06,26,10,11,21.60
2015,06,26,10,12,21.70
2015,06,26,10,13,21.70
2015,06,26,10,14,21.70
2015,06,26,10,15,21.70
2015,06,26,10,16,21.60
2015,06,26,10,17,21.60
2015,06,26,10,18,21.60
2015,06,26,10,19,21.60
2015,06,26,10,20,21.60
2015,06,26,10,21,21.70
2015,06,26,10,22,21.70
2015,06,26,10,23,21.70
2015,06,26,10,24,21.80
2015,06,26,10,25,21.80
2015,06,26,10,26,21.80
2015,06,26,10,27,21.80
2015,06,26,10,28,21.90
2015,06,26,10,29,22.00
2015,06,26,10,30,22.10
2015,06,26,10,31,22.10
2015,06,26,10,32,22.10
2015,06,26,10,33,22.10
2015,06,26,10,34,22.20
2015,06,26,10,35,22.10
2015,06,26,10,36,22.10
2015,06,26,10,37,22.10
2015,06,26,10,38,22.00
2015,06,26,10,39,21.90
2015,06,26,10,40,21.80
2015,06,26,10,41,21.80
2015,06,26,10,42,21.90
2015,06,26,10,43,21.90
2015,06,26,10,44,21.90
2015,06,26,10,45,21.90
2015,06,26,10,46,22.00
2015,06,26,10,47,22.00
2015,06,26,10,48,22.10
2015,06,26,10,49,22.10
2015,06,26,10,50,22.20
2015,06,26,10,51,22.20
2015,06,26,10,52,22.20
2015,06,26,10,53,22.20
2015,06,26,10,54,22.30
2015,06,26,10,55,22.30
2015,06,26,10,56,22.20
2015,06,26,10,57,22.20
2015,06,26,10,58,22.20
2015,06,26,10,59,22.30
2015,06,26,11,00,22.30
2015,06,26,11,01,22.30
2015,06,26,11,02,22.40
2015,06,26,11,03,22.40
2015,06,26,11,04,22.50
2015,06,26,11,05,22.60
2015,06,26,11,06,22.60
2015,06,26,11,07,22.70
2015,06,26,11,08,22.80
2015,06,26,11,09,22.80
2015,06,26,11,10,22.80
2015,06,26,11,11,22.80
2015,06,26,11,12,22.90
2015,06,26,11,13,22.90
2015,06,26,11,14,22.90
2015,06,26,11,15,22.90
2015,06,26,11,16,22.90
2015,06,26,11,17,22.90
2015,06,26,11,18,23.00
2015,06,26,11,19,23.00
2015,06,26,11,20,23.00
2015,06,26,11,21,23.00
2015,06,26,11,22,23.10
2015,06,26,11,23,23.10
2015,06,26,11,24,23.20
2015,06,26,11,25,23.20
2015,06,26,11,26,23.20
2015,06,26,11,27,23.30
2015,06,26,11,28,23.30
2015,06,26,11,29,23.40
2015,06,26,11,30,23.40
2015,06,26,11,31,23.50
2015,06,26,11,32,23.60
2015,06,26,11,33,23.70
2015,06,26,11,34,23.70
2015,06,26,11,35,23.70
2015,06,26,11,36,23.70
2015,06,26,11,37,23.80
2015,06,26,11,38,23.80
2015,06,26,11,39,23.80
2015,06,26,11,40,23.70
2015,06,26,11,41,23.70
2015,06,26,11,42,23.70
2015,06,26,11,43,23.70
2015,06,26,11,44,23.70
2015,06,26,11,45,23.70
2015,06,26,11,46,23.60
2015,06,26,11,47,23.50
2015,06,26,11,48,23.50
2015,06,26,11,49,23.40
2015,06,26,11,50,23.40
2015,06,26,11,51,23.30
2015,06,26,11,52,23.40
2015,06,26,11,53,23.30
2015,06,26,11,54,23.30
2015,06,26,11,55,23.30
2015,06,26,11,56,23.30
2015,06,26,11,57,23.30
2015,06,26,11,58,23.40
2015,06,26,11,59,23.40
2015,06,26,12,00,23.40
2015,06,26,12,01,23.50
2015,06,26,12,02,23.60
2015,06,26,12,03,23.60
2015,06,26,12,04,23.60
2015,06,26,12,05,23.60
2015,06,26,12,06,23.70
2015,06,26,12,07,23.70
2015,06,26,12,08,23.80
2015,06,26,12,09,23.80
2015,06,26,12,10,23.90
2015,06,26,12,11,24.00
2015,06,26,12,12,24.10
2015,06,26,12,13,24.20
2015,06,26,12,14,24.30
2015,06,26,12,15,24.30
2015,06,26,12,16,24.30
2015,06,26,12,17,24.40
2015,06,26,12,18,24.40
2015,06,26,12,19,24.40
2015,06,26,12,20,24.50
2015,06,26,12,21,24.60
2015,06,26,12,22,24.50
2015,06,26,12,23,24.50
2015,06,26,12,24,24.40
2015,06,26,12,25,24.40
2015,06,26,12,26,24.30
2015,06,26,12,27,24.40
2015,06,26,12,28,24.50
2015,06,26,12,29,24.50
2015,06,26,12,30,24.60
2015,06,26,12,31,24.60
2015,06,26,12,32,24.80
2015,06,26,12,33,24.90
2015,06,26,12,34,24.90
2015,06,26,12,35,24.90
2015,06,26,12,36,24.80
2015,06,26,12,37,24.80
2015,06,26,12,38,24.70
2015,06,26,12,39,24.70
2015,06,26,12,40,24.70
2015,06,26,12,41,24.70
2015,06,26,12,42,24.70
2015,06,26,12,43,24.60
2015,06,26,12,44,24.60
2015,06,26,12,45,24.60
2015,06,26,12,46,24.50
2015,06,26,12,47,24.50
2015,06,26,12,48,24.50
2015,06,26,12,49,24.50
2015,06,26,12,50,24.60
2015,06,26,12,51,24.60
2015,06,26,12,52,24.50
2015,06,26,12,53,24.40
2015,06,26,12,54,24.40
2015,06,26,12,55,24.40
2015,06,26,12,56,24.40
2015,06,26,12,57,24.40
2015,06,26,12,58,24.50
2015,06,26,12,59,24.60
2015,06,26,13,00,24.60
2015,06,26,13,01,24.60
2015,06,26,13,02,24.60
2015,06,26,13,03,24.60
2015,06,26,13,04,24.70
2015,06,26,13,05,24.80
2015,06,26,13,06,24.80
2015,06,26,13,07,24.90
2015,06,26,13,08,24.90
2015,06,26,13,09,24.90
2015,06,26,13,10,25.00
2015,06,26,13,11,25.00
2015,06,26,13,12,25.00
2015,06,26,13,13,25.10
2015,06,26,13,14,25.20
2015,06,26,13,15,25.30
2015,06,26,13,16,25.30
2015,06,26,13,17,25.40
2015,06,26,13,18,25.40
2015,06,26,13,19,25.40
2015,06,26,13,20,25.40
2015,06,26,13,21,25.40
2015,06,26,13,22,25.30
2015,06,26,13,23,25.30
2015,06,26,13,24,25.30
2015,06,26,13,25,25.30
2015,06,26,13,26,25.40
2015,06,26,13,27,25.50
2015,06,26,13,28,25.60
2015,06,26,13,29,25.70
2015,06,26,13,30,25.80
2015,06,26,13,31,25.90
2015,06,26,13,32,25.90
2015,06,26,13,33,26.00
2015,06,26,13,34,26.00
2015,06,26,13,35,26.10
2015,06,26,13,36,26.10
2015,06,26,13,37,26.10
2015,06,26,13,38,26.10
2015,06,26,13,39,26.20
2015,06,26,13,40,26.10
2015,06,26,13,41,26.00
2015,06,26,13,42,26.00
2015,06,26,13,43,25.90
2015,06,26,13,44,25.90
2015,06,26,13,45,25.90
2015,06,26,13,46,25.90
2015,06,26,13,47,25.80
2015,06,26,13,48,25.80
2015,06,26,13,49,25.70
2015,06,26,13,50,25.60
2015,06,26,13,51,25.50
2015,06,26,13,52,25.40
2015,06,26,13,53,25.30
2015,06,26,13,54,25.20
2015,06,26,13,55,25.20
2015,06,26,13,56,25.20
2015,06,26,13,57,25.20
2015,06,26,13,58,25.20
2015,06,26,13,59,25.20
2015,06,26,14,00,25.20
2015,06,26,14,01,25.30
2015,06,26,14,02,25.40
2015,06,26,14,03,25.40
2015,06,26,14,04,25.50
2015,06,26,14,05,25.50
2015,06,26,14,06,25.60
2015,06,26,14,07,25.60
2015,06,26,14,08,25.70
2015,06,26,14,09,25.80
2015,06,26,14,10,25.80
2015,06,26,14,11,25.90
2015,06,26,14,12,25.90
2015,06,26,14,13,25.90
2015,06,26,14,14,25.90
2015,06,26,14,15,26.00
2015,06,26,14,16,26.20
2015,06,26,14,17,26.30
2015,06,26,14,18,26.40
2015,06,26,14,19,26.50
2015,06,26,14,20,26.60
2015,06,26,14,21,26.70
2015,06,26,14,22,26.70
2015,06,26,14,23,26.80
2015,06,26,14,24,26.80
2015,06,26,14,25,26.80
2015,06,26,14,26,26.80
2015,06,26,14,27,26.80
2015,06,26,14,28,26.80
2015,06,26,14,29,26.70
2015,06,26,14,30,26.70
2015,06,26,14,31,26.60
2015,06,26,14,32,26.50
2015,06,26,14,33,26.40
2015,06,26,14,34,26.40
2015,06,26,14,35,26.30
2015,06,26,14,36,26.30
2015,06,26,14,37,26.40
2015,06,26,14,38,26.40
2015,06,26,14,39,26.40
2015,06,26,14,40,26.40
2015,06,26,14,41,26.50
2015,06,26,14,42,26.50
2015,06,26,14,43,26.50
2015,06,26,14,44,26.50
2015,06,26,14,45,26.50
2015,06,26,14,46,26.60
2015,06,26,14,47,26.60
2015,06,26,14,48,26.70
2015,06,26,14,49,26.70
2015,06,26,14,50,26.70
2015,06,26,14,51,26.70
2015,06,26,14,52,26.80
2015,06,26,14,53,26.90
2015,06,26,14,54,26.90
2015,06,26,14,55,27.00
2015,06,26,14,56,27.00
2015,06,26,14,57,27.00
2015,06,26,14,58,26.90
2015,06,26,14,59,26.90
2015,06,26,15,00,26.90
2015,06,26,15,01,26.90
2015,06,26,15,02,26.90
2015,06,26,15,03,27.00
2015,06,26,15,04,27.00
2015,06,26,15,05,27.10
2015,06,26,15,06,27.00
2015,06,26,15,07,27.00
2015,06,26,15,08,26.90
2015,06,26,15,09,26.80
2015,06,26,15,10,26.70
2015,06,26,15,11,26.70
2015,06,26,15,12,26.60
2015,06,26,15,13,26.60
2015,06,26,15,14,26.60
2015,06,26,15,15,26.70
2015,06,26,15,16,26.70
2015,06,26,15,17,26.80
2015,06,26,15,18,26.90
2015,06,26,15,19,27.00
2015,06,26,15,20,27.10
2015,06,26,15,21,27.20
2015,06,26,15,22,27.30
2015,06,26,15,23,27.30
2015,06,26,15,24,27.40
2015,06,26,15,25,27.40
2015,06,26,15,26,27.50
2015,06,26,15,27,27.60
2015,06,26,15,28,27.50
2015,06,26,15,29,27.50
2015,06,26,15,30,27.50
2015,06,26,15,31,27.50
2015,06,26,15,32,27.60
2015,06,26,15,33,27.70
2015,06,26,15,34,27.70
2015,06,26,15,35,27.80
2015,06,26,15,36,27.80
2015,06,26,15,37,27.80
2015,06,26,15,38,27.80
2015,06,26,15,39,27.80
2015,06,26,15,40,27.80
2015,06,26,15,41,27.80
2015,06,26,15,42,27.80
2015,06,26,15,43,27.70
2015,06,26,15,44,27.60
2015,06,26,15,45,27.60
2015,06,26,15,46,27.60
2015,06,26,15,47,27.60
2015,06,26,15,48,27.60
2015,06,26,15,49,27.60
2015,06,26,15,50,27.60
2015,06,26,15,51,27.60
2015,06,26,15,52,27.60
2015,06,26,15,53,27.50
2015,06,26,15,54,27.50
2015,06,26,15,55,27.50
2015,06,26,15,56,27.40
2015,06,26,15,57,27.40
2015,06,26,15,58,27.30
2015,06,26,15,59,27.30
2015,06,26,16,00,27.30
2015,06,26,16,01,27.30
2015,06,26,16,02,27.30
2015,06,26,16,03,27.30
2015,06,26,16,04,27.20
2015,06,26,16,05,27.20
2015,06,26,16,06,27.20
2015,06,26,16,07,27.30
2015,06,26,16,08,27.30
2015,06,26,16,09,27.30
2015,06,26,16,10,27.40
2015,06,26,16,11,27.40
2015,06,26,16,12,27.40
2015,06,26,16,13,27.50
2015,06,26,16,14,27.60
2015,06,26,16,15,27.70
2015,06,26,16,16,27.80
2015,06,26,16,17,27.90
2015,06,26,16,18,27.90
2015,06,26,16,19,28.00
2015,06,26,16,20,28.00
2015,06,26,16,21,28.00
2015,06,26,16,22,27.90
2015,06,26,16,23,27.90
2015,06,26,16,24,27.80
2015,06,26,16,25,27.90
2015,06,26,16,26,27.90
2015,06,26,16,27,28.00
2015,06,26,16,28,28.00
2015,06,26,16,29,28.10
2015,06,26,16,30,28.10
2015,06,26,16,31,28.10
2015,06,26,16,32,28.20
2015,06,26,16,33,28.20
2015,06,26,16,34,28.20
2015,06,26,16,35,28.20
2015,06,26,16,36,28.30
2015,06,26,16,37,28.30
2015,06,26,16,38,28.20
2015,06,26,16,39,28.20
2015,06,26,16,40,28.20
2015,06,26,16,41,28.30
2015,06,26,16,42,28.30
2015,06,26,16,43,28.30
2015,06,26,16,44,28.40
2015,06,26,16,45,28.40
2015,06,26,16,46,28.40
2015,06,26,16,47,28.40
2015,06,26,16,48,28.40
2015,06,26,16,49,28.50
2015,06,26,16,50,28.60
2015,06,26,16,51,28.60
2015,06,26,16,52,28.70
2015,06,26,16,53,28.70
2015,06,26,16,54,28.80
2015,06,26,16,55,28.80
2015,06,26,16,56,28.80
2015,06,26,16,57,28.90
2015,06,26,16,58,28.90
2015,06,26,16,59,28.90
2015,06,26,17,00,28.80
2015,06,26,17,01,28.70
2015,06,26,17,02,28.70
2015,06,26,17,03,28.70
2015,06,26,17,04,28.60
2015,06,26,17,05,28.60
2015,06,26,17,06,28.60
2015,06,26,17,07,28.60
2015,06,26,17,08,28.60
2015,06,26,17,09,28.60
2015,06,26,17,10,28.70
2015,06,26,17,11,28.70
2015,06,26,17,12,28.60
2015,06,26,17,13,28.50
2015,06,26,17,14,28.50
2015,06,26,17,15,28.50
2015,06,26,17,16,28.50
2015,06,26,17,17,28.50
2015,06,26,17,18,28.50
2015,06,26,17,19,28.50
2015,06,26,17,20,28.50
2015,06,26,17,21,28.50
2015,06,26,17,22,28.50
2015,06,26,17,23,28.50